Simultaneous Nadir Overpasses (SNOs) Predictions

Prediction of SNOs between GOES-17 and NOAA-19 Satellite Orbit:

Table of predicted SNOs for the next 14.0 days since TLE Epoch: 5/27/2023
Index Date Time (GOES-17) GOES-17 Lat,Lon NOAA-19 Lat,Lon Distance(km) Time Diff (sec)
1 05/27/2023 03:33:25 0.00,-104.69 0.00,-104.73 3.67 80
2 05/28/2023 03:18:43 0.00,-104.69 0.68,-101.80 330.66 80
3 05/30/2023 15:38:52 -0.00,-104.74 0.42,-106.59 210.72 80
4 05/31/2023 15:29:31 -0.01,-104.74 -0.26,-103.66 123.59 80
5 06/01/2023 15:17:29 -0.01,-104.74 -0.93,-100.73 457.81 80
6 06/03/2023 03:49:38 0.01,-104.70 -0.87,-108.43 426.49 80
7 06/04/2023 03:37:36 0.01,-104.69 -0.18,-105.50 92.60 80
8 06/05/2023 03:22:55 0.01,-104.69 0.50,-102.58 241.21 80
9 06/07/2023 15:43:03 -0.01,-104.71 0.59,-107.36 302.28 80
10 06/08/2023 15:33:42 -0.01,-104.71 -0.10,-104.44 31.76 80
11 06/09/2023 15:21:39 -0.01,-104.71 -0.73,-101.50 365.69 80
